Location: Corralito
(10.2667°N, 66.9500°W)
Time: 12:29:03
(UTC+00:00)

Cosmos 2251 Rocket - Pass Details

Date: 05 December 2023
Orbit: 763 x 790 km, 74.0° (Epoch: 03 March)

Event Time Altitude Azimuth Distance (km) Brightness Sun altitude
Rises 22:25:58 0° 5° (N) 3,270 6.5 -5.6°
Reaches altitude 10° 22:28:40 10° 17° (NNE) 2,344 5.7 -6.2°
Maximum altitude 22:33:11 28° 75° (ENE) 1,446 4.4 -7.3°
Drops below altitude 10° 22:37:42 10° 133° (SE) 2,347 5.8 -8.3°
Sets 22:40:24 0° 145° (SE) 3,274 6.6 -8.9°
